Time,TemperatureF,DewpointF,PressureIn,WindDirection,WindDirectionDegrees,WindSpeedMPH,WindSpeedGustMPH,Humidity,HourlyPrecipIn,Conditions,Clouds,dailyrainin,SoftwareType,DateUTC
2013-01-28 00:00:00,74.0,-99.9,29.97,NNE,30,26.0,-999.0,-999,-99.99,,,-99.99,,2013-01-28 08:00:00,
2013-01-28 00:22:00,74.0,-99.9,29.97,NNE,30,26.0,-999.0,-999,-99.99,,,-99.99,,2013-01-28 08:22:00,
2013-01-28 00:32:00,74.0,-99.9,29.97,NNE,30,26.0,-999.0,-999,-99.99,,,-99.99,,2013-01-28 08:32:00,
2013-01-28 00:42:00,74.0,-99.9,29.97,NNE,30,26.0,-999.0,-999,-99.99,,,-99.99,,2013-01-28 08:42:00,
2013-01-28 00:53:00,74.0,-99.9,29.97,NNE,30,26.0,-999.0,-999,-99.99,,,-99.99,,2013-01-28 08:53:00,
2013-01-28 01:00:00,75.0,-99.9,29.97,NNE,30,23.0,-999.0,-999,-99.99,,,-99.99,,2013-01-28 09:00:00,
2013-01-28 01:22:00,75.0,-99.9,29.97,NNE,30,23.0,-999.0,-999,-99.99,,,-99.99,,2013-01-28 09:22:00,
2013-01-28 01:33:00,75.0,-99.9,29.97,NNE,30,23.0,-999.0,-999,-99.99,,,-99.99,,2013-01-28 09:33:00,
2013-01-28 01:42:00,75.0,-99.9,29.97,NNE,30,23.0,-999.0,-999,-99.99,,,-99.99,,2013-01-28 09:42:00,
2013-01-28 01:52:00,75.0,-99.9,29.97,NNE,30,23.0,-999.0,-999,-99.99,,,-99.99,,2013-01-28 09:52:00,
2013-01-28 02:00:00,76.0,-99.9,30.00,NNE,30,21.0,-999.0,-999,-99.99,,,-99.99,,2013-01-28 10:00:00,
2013-01-28 02:21:00,76.0,-99.9,30.00,NNE,30,21.0,-999.0,-999,-99.99,,,-99.99,,2013-01-28 10:21:00,
2013-01-28 02:32:00,76.0,-99.9,30.00,NNE,30,21.0,-999.0,-999,-99.99,,,-99.99,,2013-01-28 10:32:00,
2013-01-28 02:42:00,76.0,-99.9,30.00,NNE,30,21.0,-999.0,-999,-99.99,,,-99.99,,2013-01-28 10:42:00,
2013-01-28 02:52:00,76.0,-99.9,30.00,NNE,30,21.0,-999.0,-999,-99.99,,,-99.99,,2013-01-28 10:52:00,
2013-01-28 03:00:00,76.0,-99.9,30.00,NNE,30,22.0,-999.0,-999,-99.99,,,-99.99,,2013-01-28 11:00:00,
2013-01-28 03:22:00,76.0,-99.9,30.00,NNE,30,22.0,-999.0,-999,-99.99,,,-99.99,,2013-01-28 11:22:00,
2013-01-28 03:33:00,76.0,-99.9,30.00,NNE,30,22.0,-999.0,-999,-99.99,,,-99.99,,2013-01-28 11:33:00,
2013-01-28 03:42:00,76.0,-99.9,30.00,NNE,30,22.0,-999.0,-999,-99.99,,,-99.99,,2013-01-28 11:42:00,
2013-01-28 03:53:00,76.0,-99.9,30.00,NNE,30,22.0,-999.0,-999,-99.99,,,-99.99,,2013-01-28 11:53:00,
2013-01-28 04:00:00,76.0,-99.9,30.00,NE,40,20.0,-999.0,-999,-99.99,,,-99.99,,2013-01-28 12:00:00,
2013-01-28 04:23:00,76.0,-99.9,30.00,NE,40,20.0,-999.0,-999,-99.99,,,-99.99,,2013-01-28 12:23:00,
2013-01-28 04:33:00,76.0,-99.9,30.00,NE,40,20.0,-999.0,-999,-99.99,,,-99.99,,2013-01-28 12:33:00,
2013-01-28 04:43:00,76.0,-99.9,30.00,NE,40,20.0,-999.0,-999,-99.99,,,-99.99,,2013-01-28 12:43:00,
2013-01-28 04:53:00,76.0,-99.9,30.00,NE,40,20.0,-999.0,-999,-99.99,,,-99.99,,2013-01-28 12:53:00,
2013-01-28 05:00:00,76.0,-99.9,29.98,NNE,30,26.0,-999.0,-999,-99.99,,,-99.99,,2013-01-28 13:00:00,
2013-01-28 05:23:00,76.0,-99.9,29.98,NNE,30,26.0,-999.0,-999,-99.99,,,-99.99,,2013-01-28 13:23:00,
2013-01-28 05:33:00,76.0,-99.9,29.98,NNE,30,26.0,-999.0,-999,-99.99,,,-99.99,,2013-01-28 13:33:00,
2013-01-28 05:43:00,76.0,-99.9,29.98,NNE,30,26.0,-999.0,-999,-99.99,,,-99.99,,2013-01-28 13:43:00,
2013-01-28 05:53:00,76.0,-99.9,29.98,NNE,30,26.0,-999.0,-999,-99.99,,,-99.99,,2013-01-28 13:53:00,
2013-01-28 06:00:00,76.0,-99.9,29.96,NNE,30,23.0,-999.0,-999,-99.99,,,-99.99,,2013-01-28 14:00:00,
2013-01-28 06:23:00,76.0,-99.9,29.96,NNE,30,23.0,-999.0,-999,-99.99,,,-99.99,,2013-01-28 14:23:00,
2013-01-28 06:33:00,76.0,-99.9,29.96,NNE,30,23.0,-999.0,-999,-99.99,,,-99.99,,2013-01-28 14:33:00,
2013-01-28 06:43:00,76.0,-99.9,29.96,NNE,30,23.0,-999.0,-999,-99.99,,,-99.99,,2013-01-28 14:43:00,
2013-01-28 06:53:00,76.0,-99.9,29.96,NNE,30,23.0,-999.0,-999,-99.99,,,-99.99,,2013-01-28 14:53:00,
2013-01-28 07:00:00,77.0,-99.9,29.94,NE,40,21.0,-999.0,-999,-99.99,,,-99.99,,2013-01-28 15:00:00,
2013-01-28 07:24:00,77.0,-99.9,29.94,NE,40,21.0,-999.0,-999,-99.99,,,-99.99,,2013-01-28 15:24:00,
2013-01-28 07:34:00,77.0,-99.9,29.94,NE,40,21.0,-999.0,-999,-99.99,,,-99.99,,2013-01-28 15:34:00,
2013-01-28 07:43:00,77.0,-99.9,29.94,NE,40,21.0,-999.0,-999,-99.99,,,-99.99,,2013-01-28 15:43:00,
2013-01-28 07:54:00,77.0,-99.9,29.94,NE,40,21.0,-999.0,-999,-99.99,,,-99.99,,2013-01-28 15:54:00,
2013-01-28 08:00:00,77.0,-99.9,29.92,NE,40,20.0,-999.0,-999,-99.99,,,-99.99,,2013-01-28 16:00:00,
2013-01-28 08:22:00,77.0,-99.9,29.92,NE,40,20.0,-999.0,-999,-99.99,,,-99.99,,2013-01-28 16:22:00,
2013-01-28 08:33:00,77.0,-99.9,29.92,NE,40,20.0,-999.0,-999,-99.99,,,-99.99,,2013-01-28 16:33:00,
2013-01-28 08:43:00,77.0,-99.9,29.92,NE,40,20.0,-999.0,-999,-99.99,,,-99.99,,2013-01-28 16:43:00,
2013-01-28 08:53:00,77.0,-99.9,29.92,NE,40,20.0,-999.0,-999,-99.99,,,-99.99,,2013-01-28 16:53:00,
2013-01-28 09:00:00,77.0,-99.9,29.92,NE,50,18.0,-999.0,-999,-99.99,,,-99.99,,2013-01-28 17:00:00,
2013-01-28 09:23:00,77.0,-99.9,29.92,NE,50,18.0,-999.0,-999,-99.99,,,-99.99,,2013-01-28 17:23:00,
2013-01-28 09:33:00,77.0,-99.9,29.92,NE,50,18.0,-999.0,-999,-99.99,,,-99.99,,2013-01-28 17:33:00,
2013-01-28 09:42:00,77.0,-99.9,29.92,NE,50,18.0,-999.0,-999,-99.99,,,-99.99,,2013-01-28 17:42:00,
2013-01-28 09:53:00,77.0,-99.9,29.92,NE,50,18.0,-999.0,-999,-99.99,,,-99.99,,2013-01-28 17:53:00,
2013-01-28 10:00:00,82.0,72.0,29.93,NNE,30,18.0,-999.0,70,-99.99,,,-99.99,,2013-01-28 18:00:00,
2013-01-28 10:23:00,77.0,-99.9,29.93,NNE,20,20.0,-999.0,-999,-99.99,,,-99.99,,2013-01-28 18:23:00,
2013-01-28 10:33:00,82.0,72.0,29.93,NNE,30,18.0,-999.0,70,-99.99,,,-99.99,,2013-01-28 18:33:00,
2013-01-28 10:41:00,82.0,72.0,29.93,NNE,30,18.0,-999.0,70,-99.99,,,-99.99,,2013-01-28 18:41:00,
2013-01-28 10:51:00,82.0,72.0,29.93,NNE,30,18.0,-999.0,70,-99.99,,,-99.99,,2013-01-28 18:51:00,
2013-01-28 11:00:00,77.0,-99.9,29.94,NNE,30,17.0,-999.0,-999,-99.99,,,-99.99,,2013-01-28 19:00:00,
2013-01-28 11:23:00,77.0,-99.9,29.94,NNE,30,17.0,-999.0,-999,-99.99,,,-99.99,,2013-01-28 19:23:00,
2013-01-28 11:33:00,77.0,-99.9,29.94,NNE,30,17.0,-999.0,-999,-99.99,,,-99.99,,2013-01-28 19:33:00,
2013-01-28 11:43:00,77.0,-99.9,29.94,NNE,30,17.0,-999.0,-999,-99.99,,,-99.99,,2013-01-28 19:43:00,
2013-01-28 11:53:00,77.0,-99.9,29.94,NNE,30,17.0,-999.0,-999,-99.99,,,-99.99,,2013-01-28 19:53:00,
2013-01-28 12:00:00,77.0,-99.9,29.96,NNE,20,21.0,-999.0,-999,-99.99,,,-99.99,,2013-01-28 20:00:00,
2013-01-28 12:22:00,77.0,-99.9,29.96,NNE,20,21.0,-999.0,-999,-99.99,,,-99.99,,2013-01-28 20:22:00,
2013-01-28 12:33:00,77.0,-99.9,29.96,NNE,20,21.0,-999.0,-999,-99.99,,,-99.99,,2013-01-28 20:33:00,
2013-01-28 12:43:00,77.0,-99.9,29.96,NNE,20,21.0,-999.0,-999,-99.99,,,-99.99,,2013-01-28 20:43:00,
2013-01-28 12:53:00,77.0,-99.9,29.96,NNE,20,21.0,-999.0,-999,-99.99,,,-99.99,,2013-01-28 20:53:00,
2013-01-28 13:00:00,78.0,-99.9,29.94,NE,40,18.0,-999.0,-999,-99.99,,,-99.99,,2013-01-28 21:00:00,
2013-01-28 13:23:00,78.0,-99.9,29.94,NE,40,18.0,-999.0,-999,-99.99,,,-99.99,,2013-01-28 21:23:00,
2013-01-28 13:34:00,78.0,-99.9,29.94,NE,40,18.0,-999.0,-999,-99.99,,,-99.99,,2013-01-28 21:34:00,
2013-01-28 13:43:00,78.0,-99.9,29.94,NE,40,18.0,-999.0,-999,-99.99,,,-99.99,,2013-01-28 21:43:00,
2013-01-28 13:53:00,78.0,-99.9,29.94,NE,40,18.0,-999.0,-999,-99.99,,,-99.99,,2013-01-28 21:53:00,
2013-01-28 14:00:00,78.0,-99.9,29.97,NNE,30,22.0,-999.0,-999,-99.99,,,-99.99,,2013-01-28 22:00:00,
2013-01-28 14:23:00,78.0,-99.9,29.97,NNE,30,22.0,-999.0,-999,-99.99,,,-99.99,,2013-01-28 22:23:00,
2013-01-28 14:33:00,78.0,-99.9,29.97,NNE,30,22.0,-999.0,-999,-99.99,,,-99.99,,2013-01-28 22:33:00,
2013-01-28 14:43:00,78.0,-99.9,29.97,NNE,30,22.0,-999.0,-999,-99.99,,,-99.99,,2013-01-28 22:43:00,
2013-01-28 14:53:00,78.0,-99.9,29.97,NNE,30,22.0,-999.0,-999,-99.99,,,-99.99,,2013-01-28 22:53:00,
2013-01-28 15:00:00,78.0,-99.9,29.97,NNE,20,21.0,-999.0,-999,-99.99,,,-99.99,,2013-01-28 23:00:00,
2013-01-28 15:22:00,78.0,-99.9,29.97,NNE,20,21.0,-999.0,-999,-99.99,,,-99.99,,2013-01-28 23:22:00,
2013-01-28 15:33:00,78.0,-99.9,29.97,NNE,20,21.0,-999.0,-999,-99.99,,,-99.99,,2013-01-28 23:33:00,
2013-01-28 15:42:00,78.0,-99.9,29.97,NNE,20,21.0,-999.0,-999,-99.99,,,-99.99,,2013-01-28 23:42:00,
2013-01-28 15:53:00,78.0,-99.9,29.97,NNE,20,21.0,-999.0,-999,-99.99,,,-99.99,,2013-01-28 23:53:00,
2013-01-28 16:00:00,78.0,-99.9,29.97,NNE,20,21.0,-999.0,-999,-99.99,,,-99.99,,2013-01-29 00:00:00,
2013-01-28 16:22:00,78.0,-99.9,29.97,NNE,20,21.0,-999.0,-999,-99.99,,,-99.99,,2013-01-29 00:22:00,
2013-01-28 16:33:00,78.0,-99.9,29.97,NNE,20,21.0,-999.0,-999,-99.99,,,-99.99,,2013-01-29 00:33:00,
2013-01-28 16:42:00,78.0,-99.9,29.97,NNE,20,21.0,-999.0,-999,-99.99,,,-99.99,,2013-01-29 00:42:00,
2013-01-28 16:52:00,78.0,-99.9,29.97,NNE,20,21.0,-999.0,-999,-99.99,,,-99.99,,2013-01-29 00:52:00,
2013-01-28 17:00:00,78.0,-99.9,29.96,NNE,20,20.0,-999.0,-999,-99.99,,,-99.99,,2013-01-29 01:00:00,
2013-01-28 17:23:00,78.0,-99.9,29.96,NNE,20,20.0,-999.0,-999,-99.99,,,-99.99,,2013-01-29 01:23:00,
2013-01-28 17:32:00,78.0,-99.9,29.96,NNE,20,20.0,-999.0,-999,-99.99,,,-99.99,,2013-01-29 01:32:00,
2013-01-28 17:42:00,78.0,-99.9,29.96,NNE,20,20.0,-999.0,-999,-99.99,,,-99.99,,2013-01-29 01:42:00,
2013-01-28 17:53:00,78.0,-99.9,29.96,NNE,20,20.0,-999.0,-999,-99.99,,,-99.99,,2013-01-29 01:53:00,
2013-01-28 18:00:00,78.0,-99.9,29.95,NNE,30,15.0,-999.0,-999,-99.99,,,-99.99,,2013-01-29 02:00:00,
2013-01-28 18:22:00,78.0,-99.9,29.95,NNE,30,15.0,-999.0,-999,-99.99,,,-99.99,,2013-01-29 02:22:00,
2013-01-28 18:33:00,78.0,-99.9,29.95,NNE,30,15.0,-999.0,-999,-99.99,,,-99.99,,2013-01-29 02:33:00,
2013-01-28 18:42:00,78.0,-99.9,29.95,NNE,30,15.0,-999.0,-999,-99.99,,,-99.99,,2013-01-29 02:42:00,
2013-01-28 18:53:00,78.0,-99.9,29.95,NNE,30,15.0,-999.0,-999,-99.99,,,-99.99,,2013-01-29 02:53:00,
2013-01-28 19:00:00,78.0,-99.9,29.95,NNE,20,14.0,-999.0,-999,-99.99,,,-99.99,,2013-01-29 03:00:00,
2013-01-28 19:22:00,78.0,-99.9,29.95,NNE,20,14.0,-999.0,-999,-99.99,,,-99.99,,2013-01-29 03:22:00,
2013-01-28 19:32:00,78.0,-99.9,29.95,NNE,20,14.0,-999.0,-999,-99.99,,,-99.99,,2013-01-29 03:32:00,
2013-01-28 19:42:00,78.0,-99.9,29.95,NNE,20,14.0,-999.0,-999,-99.99,,,-99.99,,2013-01-29 03:42:00,
2013-01-28 19:53:00,78.0,-99.9,29.95,NNE,20,14.0,-999.0,-999,-99.99,,,-99.99,,2013-01-29 03:53:00,
2013-01-28 20:00:00,78.0,-99.9,29.94,NNE,30,17.0,-999.0,-999,-99.99,,,-99.99,,2013-01-29 04:00:00,
2013-01-28 20:22:00,78.0,-99.9,29.94,NNE,30,17.0,-999.0,-999,-99.99,,,-99.99,,2013-01-29 04:22:00,
2013-01-28 20:32:00,78.0,-99.9,29.94,NNE,30,17.0,-999.0,-999,-99.99,,,-99.99,,2013-01-29 04:32:00,
2013-01-28 20:42:00,78.0,-99.9,29.94,NNE,30,17.0,-999.0,-999,-99.99,,,-99.99,,2013-01-29 04:42:00,
2013-01-28 20:52:00,78.0,-99.9,29.94,NNE,30,17.0,-999.0,-999,-99.99,,,-99.99,,2013-01-29 04:52:00,
2013-01-28 21:00:00,78.0,-99.9,29.94,NE,40,13.0,-999.0,-999,-99.99,,,-99.99,,2013-01-29 05:00:00,
2013-01-28 21:22:00,78.0,-99.9,29.94,NE,40,13.0,-999.0,-999,-99.99,,,-99.99,,2013-01-29 05:22:00,
2013-01-28 21:32:00,78.0,-99.9,29.94,NE,40,13.0,-999.0,-999,-99.99,,,-99.99,,2013-01-29 05:32:00,
2013-01-28 21:43:00,78.0,-99.9,29.94,NE,40,13.0,-999.0,-999,-99.99,,,-99.99,,2013-01-29 05:43:00,
2013-01-28 21:52:00,78.0,-99.9,29.94,NE,40,13.0,-999.0,-999,-99.99,,,-99.99,,2013-01-29 05:52:00,
2013-01-28 22:00:00,78.0,72.0,29.95,NNE,30,15.0,-999.0,82,-99.99,,,-99.99,,2013-01-29 06:00:00,
2013-01-28 22:22:00,79.0,-99.9,29.93,NNE,30,20.0,-999.0,-999,-99.99,,,-99.99,,2013-01-29 06:22:00,
2013-01-28 22:32:00,79.0,-99.9,29.93,NNE,30,20.0,-999.0,-999,-99.99,,,-99.99,,2013-01-29 06:32:00,
2013-01-28 22:41:00,78.0,72.0,29.95,NNE,30,15.0,-999.0,82,-99.99,,,-99.99,,2013-01-29 06:41:00,
2013-01-28 22:52:00,78.0,72.0,29.95,NNE,30,15.0,-999.0,82,-99.99,,,-99.99,,2013-01-29 06:52:00,
2013-01-28 23:00:00,78.0,-99.9,29.94,NE,50,13.0,-999.0,-999,-99.99,,,-99.99,,2013-01-29 07:00:00,
2013-01-28 23:21:00,78.0,-99.9,29.94,NE,50,13.0,-999.0,-999,-99.99,,,-99.99,,2013-01-29 07:21:00,
2013-01-28 23:32:00,78.0,-99.9,29.94,NE,50,13.0,-999.0,-999,-99.99,,,-99.99,,2013-01-29 07:32:00,
2013-01-28 23:42:00,78.0,-99.9,29.94,NE,50,13.0,-999.0,-999,-99.99,,,-99.99,,2013-01-29 07:42:00,
2013-01-28 23:52:00,78.0,-99.9,29.94,NE,50,13.0,-999.0,-999,-99.99,,,-99.99,,2013-01-29 07:52:00,